Regional Weather Roundup
Issued by NWS

Home | Current Version | Previous Version | Text Only | Print | Product List | Glossary Off
Versions: 1 2 3 4 5 6 7 8 9 10 11 12 13 14 15 16 17 18 19 20 21 22 23 24 25 26 27 28 29 30 31 32 33 34 35 36 37 38 39 40 41 42 43 44 45 46 47 48 49

000
ASUS45 KSLC 011410
RWRUT
UTAH REGIONAL WEATHER ROUNDUP
NATIONAL WEATHER SERVICE SALT LAKE CITY UT
800 AM MDT SAT AUG 01 2015

UTZ001>011-023>025-011500-

NORTHERN UTAH

CITY           SKY/WX    TMP DP  RH WIND       PRES   REMARKS
BRIGHAM CITY   MOSUNNY   61  41  46 CALM      30.15R
HILL AFB       MOSUNNY   66  34  30 E17       30.17
LOGAN          SUNNY     58  42  55 CALM      30.19R
OGDEN          MOSUNNY   68  36  30 S9        30.14R
PROVO AIRPORT  MOSUNNY   61  34  36 CALM      30.19R
SALT LAKE CITY MOSUNNY   70  38  31 SE7       30.13S
VERNAL         SUNNY     66  41  40 W3        30.22R
WENDOVER       PTSUNNY   72  34  25 NE10      30.14R
HEBER CITY     SUNNY     52  36  54 CALM      30.28R HAZE
WEST JORDAN    SUNNY     70  39  32 CALM      30.17R

$$

UTZ012>022-026-027-011500-

SOUTHERN/CENTRAL UTAH

CITY           SKY/WX    TMP DP  RH WIND       PRES   REMARKS
BLANDING       CLOUDY    67  56  67 SE3       30.37R
BRYCE CANYON   PTSUNNY   54  44  69 CALM      30.39R
CEDAR CITY     CLOUDY    66  46  48 CALM      30.23R
DELTA          MOSUNNY   66  33  28 CALM      30.17R
HANKSVILLE     PTSUNNY   77  54  44 SE7       30.16S
MILFORD        PTSUNNY   63  45  51 SW7       30.18R
MOAB/CYNLANDS  SUNNY     78  52  40 S3        30.15R
PRICE          SUNNY     74  41  30 E7        30.26R
ST GEORGE      SUNNY     79  54  41 E6        30.07R
KANAB          CLOUDY    66  54  63 NE3       30.25S

$$

REGIONAL REPORTS     COLORADO/ARIZONA

CITY           SKY/WX    TMP DP  RH WIND       PRES   REMARKS
CRAIG, CO      SUNNY     54  38  54 CALM      30.31R
GRAND JUNCTION SUNNY     69  44  40 SE6       30.20R
RIFLE          SUNNY     64  43  46 CALM      30.28R
MONTROSE       MOSUNNY   66  49  54 SE5       30.30R
CORTEZ         MOSUNNY   66  59  78 E5        30.30R
PAGE, AZ       CLOUDY    76  58  53 CALM      30.15R
GRAND CANYON   LGT RAIN  60  56  86 SE7       30.35R
KINGMAN        CLOUDY    79  54  41 E6        30.11R
FLAGSTAFF      CLOUDY    60  57  89 CALM      30.36R

$$

REGIONAL REPORTS    NEVADA/IDAHO/WYOMING

CITY           SKY/WX    TMP DP  RH WIND       PRES   REMARKS
LAS VEGAS, NV  CLOUDY    89  56  32 CALM      29.92R
ELY            MOSUNNY   55  29  36 S8        30.29R
ELKO           PTSUNNY   58  28  32 E6        30.22R
POCATELLO, ID  SUNNY     60  41  49 CALM      30.19R
BURLEY         MOSUNNY   56  44  64 CALM      30.13S
EVANSTON, WY   SUNNY     59  30  33 CALM      30.35R
ROCK SPRINGS   SUNNY     60  30  32 CALM      30.32R
KEMMERER       SUNNY     55  34  44 N10       30.36S

$$



USA.gov is the U.S. government's official web portal to all federal, state and local government web resources and services.